| time (UTC) | temp C | wind direction | speed KPH | gust KPH | rain 1hr cm | rain 24hr cm | rain mn cm | humidity % | barometer mb |
| 20260902014811 | 25 | 148 | 0.0 | 0.0 | 0.00 | 0.00 | 0.00 | 97 | 1009.1 |
| 20260902014231 | 25 | 148 | 0.0 | 0.0 | 0.00 | 0.00 | 0.00 | 97 | 1008.8 |
| 20260902013647 | 25 | 147 | 0.0 | 0.0 | 0.00 | 0.00 | 0.00 | 96 | 1009.1 |
| 20260902013044 | 25 | 132 | 0.0 | 0.0 | 0.00 | 0.00 | 0.00 | 96 | 1008.8 |
| 20260902012426 | 25 | 132 | 0.0 | 0.0 | 0.00 | 0.00 | 0.00 | 96 | 1008.8 |
| 20260902011824 | 25 | 129 | 0.0 | 0.0 | 0.00 | 0.00 | 0.00 | 96 | 1008.8 |
| 20260902011249 | 26 | 146 | 0.0 | 0.0 | 0.00 | 0.00 | 0.00 | 95 | 1008.8 |
| 20260902010627 | 26 | 151 | 0.0 | 0.0 | 0.00 | 0.00 | 0.00 | 96 | 1008.8 |
| 20260902004807 | 26 | 142 | 0.0 | 0.0 | 0.00 | 0.00 | 0.00 | 94 | 1008.8 |
| 20260902004231 | 26 | 148 | 0.0 | 0.0 | 0.00 | 0.00 | 0.00 | 93 | 1008.8 |
| 20260902003648 | 26 | 139 | 0.0 | 0.0 | 0.00 | 0.00 | 0.00 | 92 | 1008.8 |
| 20260902003026 | 26 | 149 | 0.0 | 0.0 | 0.00 | 0.00 | 0.00 | 92 | 1008.8 |
| 20260902001832 | 27 | 144 | 0.0 | 0.0 | 0.00 | 0.00 | 0.00 | 90 | 1008.8 |
| 20260902001250 | 27 | 142 | 0.0 | 0.0 | 0.00 | 0.00 | 0.00 | 89 | 1008.4 |
| 20260902000646 | 27 | 147 | 0.0 | 0.0 | 0.00 | 0.00 | 0.00 | 88 | 1008.4 |
| 20260902000008 | 28 | 142 | 0.0 | 0.0 | 0.00 | 0.00 | 0.00 | 86 | 1008.4 |
| 20260901235425 | 28 | 148 | 0.0 | 0.0 | 0.00 | 0.00 | 0.00 | 84 | 1008.8 |
| 20260901234817 | 30 | 146 | 0.0 | 0.0 | 0.00 | 0.00 | 0.00 | 81 | 1008.4 |
| 20260901234248 | 30 | 147 | 0.0 | 0.0 | 0.00 | 0.00 | 0.00 | 78 | 1008.8 |
| 20260901233618 | 31 | 148 | 0.0 | 0.0 | 0.00 | 0.00 | 0.00 | 76 | 1008.8 |
| 20260901233023 | 32 | 148 | 0.0 | 0.0 | 0.00 | 0.00 | 0.00 | 73 | 1008.8 |
| 20260901232439 | 32 | 143 | 0.0 | 0.0 | 0.00 | 0.00 | 0.00 | 71 | 1008.8 |
| 20260901231820 | 33 | 146 | 0.0 | 0.0 | 0.00 | 0.00 | 0.00 | 69 | 1008.4 |
| 20260901231211 | 33 | 150 | 0.0 | 0.0 | 0.00 | 0.00 | 0.00 | 69 | 1008.4 |
| 20260901230012 | 33 | 149 | 0.0 | 0.0 | 0.00 | 0.00 | 0.00 | 69 | 1008.4 |
| 20260901224843 | 33 | 144 | 0.0 | 0.0 | 0.00 | 0.00 | 0.00 | 68 | 1008.4 |
| 20260901224227 | 33 | 352 | 3.2 | 3.2 | 0.00 | 0.00 | 0.00 | 63 | 1008.1 |
| 20260901223610 | 33 | 215 | 3.2 | 3.2 | 0.00 | 0.00 | 0.00 | 62 | 1008.1 |
| 20260901223026 | 33 | 136 | 1.6 | 1.6 | 0.00 | 0.00 | 0.00 | 62 | 1008.1 |
| 20260901222408 | 33 | 140 | 1.6 | 1.6 | 0.00 | 0.00 | 0.00 | 62 | 1007.7 |
| 20260901221818 | 33 | 318 | 3.2 | 4.8 | 0.00 | 0.00 | 0.00 | 61 | 1008.1 |
| 20260901221208 | 33 | 346 | 3.2 | 3.2 | 0.00 | 0.00 | 0.00 | 62 | 1008.1 |
| 20260901220050 | 34 | 355 | 3.2 | 6.4 | 0.00 | 0.00 | 0.00 | 58 | 1008.1 |
| 20260901215424 | 34 | 338 | 1.6 | 1.6 | 0.00 | 0.00 | 0.00 | 57 | 1008.4 |
| 20260901214808 | 35 | 303 | 3.2 | 4.8 | 0.00 | 0.00 | 0.00 | 58 | 1008.1 |
| 20260901214217 | 35 | 277 | 1.6 | 1.6 | 0.00 | 0.00 | 0.00 | 56 | 1008.4 |
| 20260901213621 | 35 | 25 | 3.2 | 3.2 | 0.00 | 0.00 | 0.00 | 57 | 1008.4 |
| 20260901213041 | 36 | 273 | 3.2 | 4.8 | 0.00 | 0.00 | 0.00 | 57 | 1008.4 |
| 20260901212422 | 36 | 194 | 0.0 | 1.6 | 0.00 | 0.00 | 0.00 | 61 | 1008.8 |
| 20260901211846 | 35 | 188 | 1.6 | 1.6 | 0.00 | 0.00 | 0.00 | 61 | 1008.8 |
| 20260901211230 | 36 | 184 | 1.6 | 1.6 | 0.00 | 0.00 | 0.00 | 59 | 1008.8 |
| 20260901210641 | 37 | 189 | 1.6 | 1.6 | 0.00 | 0.00 | 0.00 | 59 | 1008.8 |
| 20260901210006 | 36 | 158 | 1.6 | 1.6 | 0.00 | 0.00 | 0.00 | 52 | 1008.8 |
| 20260901205447 | 36 | 263 | 1.6 | 1.6 | 0.00 | 0.00 | 0.00 | 56 | 1008.8 |
| 20260901204809 | 36 | 196 | 1.6 | 1.6 | 0.00 | 0.00 | 0.00 | 59 | 1009.1 |
| 20260901204240 | 36 | 188 | 0.0 | 1.6 | 0.00 | 0.00 | 0.00 | 58 | 1009.1 |
| 20260901203613 | 36 | 184 | 1.6 | 3.2 | 0.00 | 0.00 | 0.00 | 55 | 1009.1 |
| 20260901203012 | 35 | 143 | 3.2 | 3.2 | 0.00 | 0.00 | 0.00 | 56 | 1009.1 |
| 20260901202421 | 36 | 210 | 1.6 | 1.6 | 0.00 | 0.00 | 0.00 | 60 | 1009.1 |
| 20260901201234 | 35 | 206 | 3.2 | 3.2 | 0.00 | 0.00 | 0.00 | 53 | 1009.1 |
| 20260901200609 | 36 | 204 | 6.4 | 9.7 | 0.00 | 0.00 | 0.00 | 54 | 1009.1 |
| 20260901200012 | 36 | 195 | 1.6 | 1.6 | 0.00 | 0.00 | 0.00 | 56 | 1009.4 |
| 20260901195425 | 35 | 209 | 1.6 | 3.2 | 0.00 | 0.00 | 0.00 | 57 | 1009.4 |
| 20260901194829 | 35 | 204 | 1.6 | 3.2 | 0.00 | 0.00 | 0.00 | 58 | 1009.4 |
| 20260901194241 | 34 | 159 | 1.6 | 1.6 | 0.00 | 0.00 | 0.00 | 64 | 1009.4 |
| 20260901193608 | 34 | 179 | 1.6 | 1.6 | 0.00 | 0.00 | 0.00 | 65 | 1009.4 |
| 20260901193026 | 33 | 153 | 0.0 | 0.0 | 0.00 | 0.00 | 0.00 | 69 | 1009.8 |
| 20260901192409 | 33 | 124 | 0.0 | 0.0 | 0.00 | 0.00 | 0.00 | 69 | 1009.8 |
| 20260901191832 | 33 | 184 | 1.6 | 1.6 | 0.00 | 0.00 | 0.00 | 62 | 1009.8 |
| 20260901191242 | 34 | 196 | 4.8 | 6.4 | 0.00 | 0.00 | 0.00 | 63 | 1010.1 |
| 20260901190629 | 34 | 212 | 6.4 | 12.9 | 0.00 | 0.00 | 0.00 | 58 | 1010.1 |
| 20260901190017 | 33 | 215 | 4.8 | 6.4 | 0.00 | 0.00 | 0.00 | 61 | 1009.8 |
| 20260901185410 | 33 | 226 | 6.4 | 6.4 | 0.00 | 0.00 | 0.00 | 59 | 1010.1 |
| 20260901184216 | 33 | 208 | 4.8 | 4.8 | 0.00 | 0.00 | 0.00 | 65 | 1009.8 |
| 20260901183627 | 33 | 191 | 1.6 | 3.2 | 0.00 | 0.00 | 0.00 | 63 | 1010.1 |
| 20260901181814 | 32 | 223 | 4.8 | 6.4 | 0.00 | 0.00 | 0.00 | 67 | 1010.4 |
| 20260901181235 | 33 | 206 | 1.6 | 3.2 | 0.00 | 0.00 | 0.00 | 67 | 1010.4 |
| 20260901180639 | 33 | 249 | 3.2 | 3.2 | 0.00 | 0.00 | 0.00 | 65 | 1010.1 |
| 20260901180039 | 33 | 195 | 3.2 | 3.2 | 0.00 | 0.00 | 0.00 | 66 | 1010.1 |
| 20260901175425 | 32 | 172 | 0.0 | 0.0 | 0.00 | 0.00 | 0.00 | 74 | 1010.4 |
| 20260901174239 | 31 | 272 | 1.6 | 1.6 | 0.00 | 0.00 | 0.00 | 71 | 1010.8 |
| 20260901171834 | 33 | 324 | 3.2 | 4.8 | 0.00 | 0.00 | 0.00 | 67 | 1010.8 |
| 20260901171219 | 33 | 197 | 4.8 | 6.4 | 0.00 | 0.00 | 0.00 | 69 | 1011.1 |
| 20260901170641 | 33 | 34 | 0.0 | 1.6 | 0.00 | 0.00 | 0.00 | 68 | 1011.1 |
| 20260901170006 | 32 | 270 | 3.2 | 4.8 | 0.00 | 0.00 | 0.00 | 72 | 1010.8 |
| 20260901165427 | 33 | 269 | 6.4 | 9.7 | 0.00 | 0.00 | 0.00 | 69 | 1010.8 |
| 20260901164845 | 32 | 167 | 1.6 | 1.6 | 0.00 | 0.00 | 0.00 | 71 | 1011.1 |
| 20260901164209 | 32 | 271 | 1.6 | 3.2 | 0.00 | 0.00 | 0.00 | 71 | 1011.1 |
| 20260901163630 | 32 | 238 | 4.8 | 4.8 | 0.00 | 0.00 | 0.00 | 71 | 1011.1 |
| 20260901162428 | 32 | 297 | 1.6 | 1.6 | 0.00 | 0.00 | 0.00 | 72 | 1010.8 |
| 20260901161234 | 31 | 268 | 4.8 | 6.4 | 0.00 | 0.00 | 0.00 | 74 | 1010.8 |
| 20260901160648 | 31 | 235 | 3.2 | 3.2 | 0.00 | 0.00 | 0.00 | 75 | 1010.8 |
| 20260901160032 | 31 | 290 | 6.4 | 9.7 | 0.00 | 0.00 | 0.00 | 72 | 1010.8 |
| 20260901155427 | 31 | 290 | 3.2 | 4.8 | 0.00 | 0.00 | 0.00 | 74 | 1011.1 |
| 20260901154836 | 31 | 260 | 6.4 | 6.4 | 0.00 | 0.00 | 0.00 | 74 | 1010.8 |
| 20260901154234 | 31 | 234 | 4.8 | 4.8 | 0.00 | 0.00 | 0.00 | 75 | 1010.4 |
| 20260901153649 | 31 | 328 | 4.8 | 4.8 | 0.00 | 0.00 | 0.00 | 76 | 1010.8 |
| 20260901153008 | 31 | 298 | 4.8 | 4.8 | 0.00 | 0.00 | 0.00 | 76 | 1011.1 |
| 20260901151246 | 30 | 196 | 1.6 | 3.2 | 0.00 | 0.00 | 0.00 | 81 | 1010.8 |
| 20260901150612 | 30 | 213 | 1.6 | 1.6 | 0.00 | 0.00 | 0.00 | 81 | 1011.1 |
| 20260901150037 | 30 | 224 | 3.2 | 3.2 | 0.00 | 0.00 | 0.00 | 81 | 1010.8 |
| 20260901145446 | 29 | 314 | 3.2 | 3.2 | 0.00 | 0.00 | 0.00 | 84 | 1010.8 |
| 20260901144815 | 28 | 145 | 1.6 | 1.6 | 0.00 | 0.00 | 0.00 | 83 | 1010.8 |
| 20260901144222 | 28 | 348 | 4.8 | 4.8 | 0.00 | 0.00 | 0.00 | 86 | 1010.8 |
| 20260901143625 | 28 | 148 | 1.6 | 1.6 | 0.00 | 0.00 | 0.00 | 89 | 1011.1 |
| 20260901143011 | 27 | 212 | 1.6 | 3.2 | 0.00 | 0.00 | 0.00 | 88 | 1010.8 |
| 20260901142416 | 27 | 183 | 0.0 | 1.6 | 0.00 | 0.00 | 0.00 | 93 | 1011.1 |
| 20260901141828 | 27 | 143 | 0.0 | 0.0 | 0.00 | 0.00 | 0.00 | 95 | 1011.1 |
| 20260901141246 | 26 | 170 | 1.6 | 1.6 | 0.00 | 0.00 | 0.00 | 96 | 1011.1 |
| 20260901140646 | 26 | 131 | 0.0 | 0.0 | 0.00 | 0.00 | 0.00 | 98 | 1010.8 |
| 20260901140040 | 26 | 135 | 0.0 | 0.0 | 0.00 | 0.00 | 0.00 | 99 | 1011.1 |
| 20260901135427 | 25 | 144 | 0.0 | 0.0 | 0.00 | 0.00 | 0.00 | 99 | 1010.8 |
| 20260901134825 | 25 | 135 | 0.0 | 0.0 | 0.00 | 0.00 | 0.00 | 99 | 1011.1 |
| 20260901134207 | 25 | 161 | 0.0 | 0.0 | 0.00 | 0.00 | 0.00 | 99 | 1011.1 |
| 20260901133629 | 25 | 151 | 0.0 | 0.0 | 0.00 | 0.00 | 0.00 | 99 | 1011.1 |
| 20260901133015 | 24 | 143 | 0.0 | 0.0 | 0.00 | 0.00 | 0.00 | 99 | 1011.1 |
| 20260901132425 | 24 | 142 | 0.0 | 0.0 | 0.00 | 0.00 | 0.00 | 99 | 1011.1 |
| 20260901131809 | 23 | 149 | 0.0 | 0.0 | 0.00 | 0.00 | 0.00 | 99 | 1011.1 |
| 20260901131233 | 23 | 134 | 0.0 | 0.0 | 0.00 | 0.00 | 0.00 | 99 | 1011.1 |
| 20260901130010 | 23 | 142 | 0.0 | 0.0 | 0.00 | 0.00 | 0.00 | 99 | 1011.1 |
| 20260901124820 | 23 | 135 | 0.0 | 0.0 | 0.00 | 0.00 | 0.00 | 99 | 1011.5 |
| 20260901124234 | 22 | 141 | 0.0 | 0.0 | 0.00 | 0.00 | 0.00 | 99 | 1011.5 |
| 20260901123643 | 22 | 141 | 0.0 | 0.0 | 0.00 | 0.00 | 0.00 | 99 | 1011.1 |
| 20260901123037 | 22 | 140 | 1.6 | 1.6 | 0.00 | 0.00 | 0.00 | 99 | 1011.1 |
| 20260901121830 | 22 | 136 | 0.0 | 0.0 | 0.00 | 0.00 | 0.00 | 99 | 1011.1 |
| 20260901121236 | 22 | 142 | 0.0 | 0.0 | 0.00 | 0.00 | 0.00 | 99 | 1011.1 |
| 20260901120608 | 22 | 141 | 0.0 | 0.0 | 0.00 | 0.00 | 0.00 | 99 | 1011.1 |
| 20260901120048 | 22 | 138 | 0.0 | 0.0 | 0.00 | 0.00 | 0.00 | 99 | 1011.1 |
| 20260901115416 | 22 | 142 | 0.0 | 0.0 | 0.00 | 0.00 | 0.00 | 99 | 1011.1 |
| 20260901114849 | 22 | 141 | 0.0 | 0.0 | 0.00 | 0.00 | 0.00 | 99 | 1011.1 |
| 20260901113609 | 22 | 142 | 0.0 | 0.0 | 0.00 | 0.00 | 0.00 | 99 | 1010.8 |
| 20260901113018 | 22 | 141 | 0.0 | 0.0 | 0.00 | 0.00 | 0.00 | 99 | 1010.8 |
| 20260901112428 | 22 | 142 | 0.0 | 0.0 | 0.00 | 0.00 | 0.00 | 99 | 1010.8 |
| 20260901111830 | 22 | 142 | 0.0 | 0.0 | 0.00 | 0.00 | 0.00 | 99 | 1010.8 |
| 20260901111208 | 22 | 142 | 0.0 | 0.0 | 0.00 | 0.00 | 0.00 | 99 | 1010.4 |
| 20260901110643 | 22 | 141 | 0.0 | 0.0 | 0.00 | 0.00 | 0.00 | 99 | 1010.4 |
| 20260901110028 | 22 | 137 | 0.0 | 0.0 | 0.00 | 0.00 | 0.00 | 99 | 1010.4 |
| 20260901105412 | 22 | 146 | 0.0 | 0.0 | 0.00 | 0.00 | 0.00 | 99 | 1010.4 |
| 20260901104826 | 22 | 146 | 0.0 | 0.0 | 0.00 | 0.00 | 0.00 | 99 | 1010.4 |
| 20260901104245 | 22 | 146 | 0.0 | 0.0 | 0.00 | 0.00 | 0.00 | 99 | 1010.4 |
| 20260901103631 | 22 | 146 | 0.0 | 0.0 | 0.00 | 0.00 | 0.00 | 99 | 1010.4 |
| 20260901102412 | 22 | 142 | 0.0 | 0.0 | 0.00 | 0.00 | 0.00 | 99 | 1010.4 |
| 20260901101826 | 22 | 141 | 0.0 | 0.0 | 0.00 | 0.00 | 0.00 | 99 | 1010.4 |
| 20260901101218 | 22 | 140 | 0.0 | 0.0 | 0.00 | 0.00 | 0.00 | 99 | 1010.1 |
| 20260901100049 | 22 | 137 | 0.0 | 0.0 | 0.00 | 0.00 | 0.00 | 99 | 1010.1 |
| 20260901095442 | 22 | 144 | 0.0 | 0.0 | 0.00 | 0.00 | 0.00 | 99 | 1010.1 |
| 20260901094833 | 22 | 144 | 0.0 | 0.0 | 0.00 | 0.00 | 0.00 | 99 | 1010.1 |
| 20260901094207 | 22 | 145 | 0.0 | 0.0 | 0.00 | 0.00 | 0.00 | 99 | 1010.1 |
| 20260901093621 | 22 | 139 | 0.0 | 0.0 | 0.00 | 0.00 | 0.00 | 99 | 1010.1 |
| 20260901091831 | 22 | 140 | 0.0 | 0.0 | 0.00 | 0.00 | 0.00 | 99 | 1009.8 |
| 20260901091216 | 22 | 137 | 0.0 | 0.0 | 0.00 | 0.00 | 0.00 | 99 | 1009.8 |
| 20260901090621 | 22 | 135 | 0.0 | 0.0 | 0.00 | 0.00 | 0.00 | 99 | 1009.8 |
| 20260901085448 | 22 | 141 | 0.0 | 0.0 | 0.00 | 0.00 | 0.00 | 99 | 1009.8 |
| 20260901084818 | 22 | 140 | 0.0 | 0.0 | 0.00 | 0.00 | 0.00 | 99 | 1009.4 |
| 20260901084215 | 22 | 141 | 0.0 | 0.0 | 0.00 | 0.00 | 0.00 | 99 | 1009.8 |
| 20260901083641 | 22 | 139 | 0.0 | 0.0 | 0.00 | 0.00 | 0.00 | 99 | 1009.8 |
| 20260901083047 | 22 | 142 | 0.0 | 0.0 | 0.00 | 0.00 | 0.00 | 99 | 1009.8 |
| 20260901081844 | 22 | 142 | 0.0 | 0.0 | 0.00 | 0.00 | 0.00 | 99 | 1009.8 |
| 20260901081221 | 22 | 145 | 0.0 | 0.0 | 0.00 | 0.00 | 0.00 | 99 | 1009.8 |
| 20260901080014 | 22 | 142 | 0.0 | 0.0 | 0.00 | 0.00 | 0.00 | 99 | 1009.4 |
| 20260901074811 | 22 | 135 | 0.0 | 0.0 | 0.00 | 0.00 | 0.00 | 99 | 1009.8 |
| 20260901074228 | 22 | 142 | 0.0 | 0.0 | 0.00 | 0.00 | 0.00 | 99 | 1009.4 |
| 20260901073649 | 22 | 142 | 0.0 | 0.0 | 0.00 | 0.00 | 0.00 | 99 | 1009.4 |
| 20260901073013 | 22 | 139 | 0.0 | 0.0 | 0.00 | 0.00 | 0.00 | 99 | 1009.8 |
| 20260901071839 | 23 | 137 | 0.0 | 0.0 | 0.00 | 0.00 | 0.00 | 99 | 1009.4 |
| 20260901071244 | 23 | 133 | 0.0 | 0.0 | 0.00 | 0.00 | 0.00 | 99 | 1009.4 |
| 20260901070023 | 23 | 135 | 0.0 | 0.0 | 0.00 | 0.00 | 0.00 | 99 | 1009.4 |
| 20260901065437 | 23 | 129 | 0.0 | 0.0 | 0.00 | 0.00 | 0.00 | 99 | 1009.4 |
| 20260901064812 | 23 | 125 | 0.0 | 0.0 | 0.00 | 0.00 | 0.00 | 99 | 1009.4 |
| 20260901064233 | 23 | 140 | 0.0 | 0.0 | 0.00 | 0.00 | 0.00 | 99 | 1009.4 |
| 20260901063612 | 23 | 139 | 0.0 | 0.0 | 0.00 | 0.00 | 0.00 | 99 | 1009.4 |
| 20260901063050 | 23 | 139 | 0.0 | 0.0 | 0.00 | 0.00 | 0.00 | 99 | 1009.4 |
| 20260901062443 | 23 | 153 | 0.0 | 0.0 | 0.00 | 0.00 | 0.00 | 99 | 1009.4 |
| 20260901061827 | 23 | 145 | 0.0 | 0.0 | 0.00 | 0.00 | 0.00 | 99 | 1009.4 |
| 20260901060615 | 23 | 142 | 0.0 | 0.0 | 0.00 | 0.00 | 0.00 | 99 | 1009.4 |
| 20260901055441 | 23 | 141 | 0.0 | 0.0 | 0.00 | 0.00 | 0.00 | 99 | 1009.4 |
| 20260901054839 | 23 | 137 | 0.0 | 0.0 | 0.00 | 0.00 | 0.00 | 99 | 1009.4 |
| 20260901054232 | 23 | 130 | 0.0 | 0.0 | 0.00 | 0.00 | 0.00 | 99 | 1009.4 |
| 20260901053619 | 23 | 135 | 0.0 | 0.0 | 0.00 | 0.00 | 0.00 | 99 | 1009.4 |
| 20260901053016 | 23 | 142 | 0.0 | 0.0 | 0.00 | 0.00 | 0.00 | 99 | 1009.4 |
| 20260901052437 | 23 | 137 | 0.0 | 0.0 | 0.00 | 0.00 | 0.00 | 99 | 1009.8 |
| 20260901051844 | 23 | 142 | 0.0 | 0.0 | 0.00 | 0.00 | 0.00 | 99 | 1009.8 |
| 20260901051211 | 23 | 150 | 0.0 | 0.0 | 0.00 | 0.00 | 0.00 | 99 | 1009.4 |
| 20260901050633 | 23 | 135 | 0.0 | 0.0 | 0.00 | 0.00 | 0.00 | 99 | 1009.4 |
| 20260901050019 | 23 | 138 | 0.0 | 0.0 | 0.00 | 0.00 | 0.00 | 99 | 1009.8 |
| 20260901045445 | 23 | 139 | 0.0 | 0.0 | 0.00 | 0.00 | 0.00 | 99 | 1009.8 |
| 20260901044808 | 23 | 141 | 0.0 | 0.0 | 0.00 | 0.00 | 0.00 | 99 | 1009.8 |
| 20260901044207 | 23 | 134 | 0.0 | 0.0 | 0.00 | 0.00 | 0.00 | 99 | 1009.8 |
| 20260901043008 | 23 | 138 | 0.0 | 0.0 | 0.00 | 0.00 | 0.00 | 99 | 1009.8 |
| 20260901042443 | 23 | 146 | 0.0 | 0.0 | 0.00 | 0.00 | 0.00 | 99 | 1009.8 |
| 20260901041847 | 23 | 143 | 0.0 | 0.0 | 0.00 | 0.00 | 0.00 | 99 | 1009.8 |
| 20260901035444 | 24 | 143 | 0.0 | 0.0 | 0.00 | 0.00 | 0.00 | 99 | 1010.1 |
| 20260901034829 | 24 | 142 | 0.0 | 0.0 | 0.00 | 0.00 | 0.00 | 99 | 1010.1 |
| 20260901034218 | 24 | 142 | 0.0 | 0.0 | 0.00 | 0.00 | 0.00 | 99 | 1010.1 |
| 20260901033639 | 24 | 142 | 0.0 | 0.0 | 0.00 | 0.00 | 0.00 | 99 | 1010.1 |
| 20260901033039 | 24 | 142 | 0.0 | 0.0 | 0.00 | 0.00 | 0.00 | 99 | 1010.1 |
| 20260901032450 | 24 | 142 | 0.0 | 0.0 | 0.00 | 0.00 | 0.00 | 99 | 1010.1 |
| 20260901031811 | 24 | 142 | 0.0 | 0.0 | 0.00 | 0.00 | 0.00 | 99 | 1010.4 |
| 20260901031246 | 24 | 142 | 0.0 | 0.0 | 0.00 | 0.00 | 0.00 | 99 | 1010.4 |
| 20260901030650 | 24 | 142 | 0.0 | 0.0 | 0.00 | 0.00 | 0.00 | 99 | 1010.4 |
| 20260901030049 | 24 | 141 | 0.0 | 0.0 | 0.00 | 0.00 | 0.00 | 99 | 1010.4 |
| 20260901025414 | 24 | 137 | 0.0 | 0.0 | 0.00 | 0.00 | 0.00 | 99 | 1010.4 |
| 20260901024810 | 24 | 134 | 0.0 | 0.0 | 0.00 | 0.00 | 0.00 | 99 | 1010.4 |
| 20260901024229 | 25 | 135 | 0.0 | 0.0 | 0.00 | 0.00 | 0.00 | 99 | 1010.1 |
| 20260901023039 | 25 | 136 | 0.0 | 0.0 | 0.00 | 0.00 | 0.00 | 99 | 1010.1 |
| 20260901022432 | 25 | 131 | 0.0 | 0.0 | 0.00 | 0.00 | 0.00 | 99 | 1010.4 |
| 20260901021847 | 25 | 130 | 0.0 | 0.0 | 0.00 | 0.00 | 0.00 | 99 | 1010.4 |
| 20260901021219 | 25 | 136 | 0.0 | 0.0 | 0.00 | 0.00 | 0.00 | 99 | 1010.4 |
| 20260901020637 | 25 | 137 | 0.0 | 0.0 | 0.00 | 0.00 | 0.00 | 99 | 1010.4 |
| 20260901020045 | 25 | 137 | 0.0 | 0.0 | 0.00 | 0.00 | 0.00 | 99 | 1010.4 |